Regional Weather Roundup
Issued by NWS

Home | Current Version | Previous Version | Graphics & Text | Print | Product List | Glossary Off
Versions: 1 2 3 4 5 6 7 8 9 10 11 12 13 14 15 16 17 18 19 20 21 22 23 24 25 26 27 28 29 30 31 32 33 34 35 36 37 38 39 40 41 42 43 44 45 46 47 48 49 50

000
ASUS43 KDMX 211801
RWRIA

WEATHER ROUNDUP FOR IOWA
NATIONAL WEATHER SERVICE DES MOINES IA
100 PM CDT SAT OCT 21 2017

NOTE: "FAIR" INDICATES FEW OR NO CLOUDS BELOW 12,000 FEET WITH NO
SIGNIFICANT WEATHER AND/OR OBSTRUCTIONS TO VISIBILITY.

* - THESE STATIONS ARE NOT NWS STATIONS...THUS NOT UNDER NWS
QUALITY CONTROL.  THEY ALSO DO NOT REPORT WEATHER SUCH
AS PRECIPITATION OR FOG.

IAZ001>003-012>014-020>022-031>034-043>046-211900-
   NORTHWEST IOWA

CITY           SKY/WX    TMP DP  RH WIND       PRES   REMARKS
CHEROKEE *     CLOUDY    70  64  81 S17G29    29.63S
DENISON *      PTSUNNY   70  63  78 S18G28    29.68S
LE MARS *      PTSUNNY   72  64  78 S17G25    29.60R
ORANGE CITY *  PTSUNNY   72  64  78 S20       29.60F
SHELDON *      CLOUDY    70  63  78 S16G28    29.59S
SIOUX CITY     LGT RAIN  63  60  90 NW20G31   29.63R FOG
6HR MIN TEMP:  66; 6HR MAX TEMP:  71; 6HR PCP:  0.24;

SPENCER        CLOUDY    69  62  78 S21G30    29.64R
6HR MIN TEMP:  63; 6HR MAX TEMP:  69; 6HR PCP:  0.01;

STORM LAKE *   PTSUNNY   70  63  78 S25G35    29.66R
$$

IAZ055>058-069>071-079>083-090>094-211900-
   SOUTHWEST IOWA

CITY           SKY/WX    TMP DP  RH WIND       PRES   REMARKS
ATLANTIC *     PTSUNNY   70  63  78 S20G30    29.71S
AUDUBON *      CLOUDY    70  63  78 S16G25    29.72S
CLARINDA *     CLOUDY    70  63  78 S20G29    29.76F
COUNCIL BLFS * CLOUDY    72  64  78 S17G28    29.68R
CRESTON *      CLOUDY    66  61  82 S21G29    29.80S
HARLAN  *      CLOUDY    70  63  78 S18G29    29.72S
LAMONI         LGT RAIN  68  61  78 S17       29.82S
6HR MIN TEMP:  63; 6HR MAX TEMP:  68; 6HR PCP: TRACE;

RED OAK *      CLOUDY    72  63  73 S24G37    29.72S
SHENANDOAH *   PTSUNNY   73  63  68 S21G35    29.72S
$$

IAZ047>049-059>061-072>074-084-211900-
   CENTRAL IOWA

CITY           SKY/WX    TMP DP  RH WIND       PRES   REMARKS
AMES           CLOUDY    69  61  75 S23G31    29.76F
6HR MIN TEMP:  63; 6HR MAX TEMP:  69;

ANKENY *       CLOUDY    68  59  73 S18G25    29.79F
BOONE *        CLOUDY    68  59  73 S16G28    29.75S
CHARITON *     CLOUDY    70  61  73 S17G30    29.82R
DES MOINES     CLOUDY    69  59  70 S22G31    29.79S
6HR MIN TEMP:  65; 6HR MAX TEMP:  69;

GRINNELL*      PTSUNNY   73  59  60 SW20G30   29.83S
KNOXVILLE *    PTSUNNY   73  59  60 S25G32    29.80R
MARSHALLTOWN   CLOUDY    70  59  68 S17G26    29.80S
6HR MIN TEMP:  63; 6HR MAX TEMP:  70;

NEWTON *       CLOUDY    72  59  64 S16G25    29.81S
PELLA *        PTSUNNY   74  59  59 S17G26    29.83R
PERRY *        CLOUDY    70  62  75 S20G30    29.74S
$$

IAZ004>006-015-016-023>025-035-036-211900-
   NORTH CENTRAL IOWA

CITY           SKY/WX    TMP DP  RH WIND       PRES   REMARKS
ALGONA *       CLOUDY    66  63  88 S21G30    29.69S
CLARION *      CLOUDY    66  63  88 S22G31    29.73F
ESTHERVILLE    CLOUDY    64  63  96 S18G26    29.66R
6HR MIN TEMP:  60; 6HR MAX TEMP:  64; 6HR PCP:  0.06;

FORT DODGE *   CLOUDY    67  61  81 S16G23    29.72F
MASON CITY     CLOUDY    64  59  83 S17G25    29.78S
6HR MIN TEMP:  58; 6HR MAX TEMP:  64; 6HR PCP:  0.04;

FOREST CITY *  CLOUDY    63  61  94 S18G26    29.74S
WEBSTER CITY * CLOUDY    68  59  73 S14G25    29.72F
IOWA FALLS *   CLOUDY    68  59  73 S21G29    29.79S
$$

IAZ007>011-017>019-026>030-037>042-050>054-066-211900-
   NORTHEAST IOWA

CITY           SKY/WX    TMP DP  RH WIND       PRES   REMARKS
CEDAR RAPIDS   SUNNY     77  60  55 S20G32    29.83F
6HR MIN TEMP:  60; 6HR MAX TEMP:  77;

CHARLES CITY * CLOUDY    66  59  77 S8G16     29.81S
CLINTON *      SUNNY     76  59  55 S21       29.92
DECORAH *      CLOUDY    68  57  68 S13G18    29.82F
DUBUQUE        SUNNY     74  58  57 S17G29    29.88F
6HR MIN TEMP:  60; 6HR MAX TEMP:  74;

MONTICELLO *   SUNNY     77  59  53 S22G30    29.85F
OELWEIN *      CLOUDY    73  59  60 S24G30    29.83F
WATERLOO       CLOUDY    68  57  68 S12G24    29.81S
6HR MIN TEMP:  60; 6HR MAX TEMP:  69; 6HR PCP:  0.01;

$$

IAZ064-065-067-068-078-211900-
   EAST CENTRAL IOWA

CITY           SKY/WX    TMP DP  RH WIND       PRES   REMARKS
DAVENPORT      SUNNY     76  57  51 S17G25    29.92F
6HR MIN TEMP:  63; 6HR MAX TEMP:  76;

IOWA CITY      SUNNY     78  60  53 S20G30    29.86F
6HR MIN TEMP:  61; 6HR MAX TEMP:  78; 6HR PCP: TRACE;

MUSCATINE *    SUNNY     77  59  53 S22G30    29.88F
QUAD CITIES    SUNNY     76  58  53 S21G29    29.90F
6HR MIN TEMP:  64; 6HR MAX TEMP:  77;

$$

IAZ062-063-075>077-085>089-095>099-211900-
   SOUTHEAST IOWA

CITY           SKY/WX    TMP DP  RH WIND       PRES   REMARKS
BURLINGTON     SUNNY     77  62  59 S14G29    29.90F
6HR MIN TEMP:  61; 6HR MAX TEMP:  77;

FAIRFIELD *    SUNNY     77  59  53 S18G29    29.84F
FORT MADISON * SUNNY     79  63  57 S16G24    29.90F HX  80
KEOKUK *       SUNNY     77  61  57 S13G26    29.89F
OSKALOOSA *      N/A     76  60  57 S21G33    29.82F
OTTUMWA        SUNNY     77  61  57 S26G32    29.81F
6HR MIN TEMP:  61; 6HR MAX TEMP:  78;

WASHINGTON *   SUNNY     79  61  53 S23G31    29.86F HX  80
$$

ABBREVIATIONS USED IN REMARKS
   TC - TEMPERATURES IN CELSIUS
  WCI - WIND CHILL INDEX
   HX - HEAT INDEX
  VSB - VISIBILITY
$$





USA.gov is the U.S. government's official web portal to all federal, state and local government web resources and services.